Terminal Aerodrome Forecast
Issued by NWS Mt. Holly, NJ

Home | Current Version | Previous Version | Text Only | Print | Product List | Glossary On
Versions: 1 2 3 4 5 6 7 8 9 10 11 12 13 14 15 16 17 18 19 20 21 22 23 24 25 26 27 28 29 30 31 32
000
FTUS41 KPHI 291130
TAFPHL
TAF
KPHL 291130Z 2912/3018 VRB04KT P6SM FEW015 BKN150
      TEMPO 2912/2913 5SM BR
     FM291300 23007KT P6SM -SHRA SCT050 BKN150
      TEMPO 2913/2915 TSRA BKN050CB
     FM291600 26013G19KT P6SM SCT050 BKN150
     FM292200 28009KT P6SM -SHRA SCT050 BKN150 PROB30 2922/2924 4SM
      TSRA BKN050CB
     FM300300 01006KT P6SM BKN150
     FM300600 03005KT 5SM BR OVC015
     FM301100 07008KT P6SM OVC015=

USA.gov is the U.S. government's official web portal to all federal, state and local government web resources and services.